{"data":{"norad_id":49084,"intl_designator":"2021-075K","name":"ONEWEB-0295","alt_names":[],"object_type":"PAYLOAD","status":"ACTIVE","operator":null,"country":"UK","launch_date":"2021-08-21","launch_site_code":"TYMSC","launch_vehicle":null,"mission":null,"orbit_class":"UNKNOWN","rcs_meters":null,"size_class":null,"mass_kg":null,"dimensions":null,"purposes":["comms"],"wikipedia_slug":null,"has_3d_model":false,"image_url":null,"decayed_at":null,"tle_current":{"epoch":"2026-05-25T00:39:12.011040Z","epoch_age_seconds":72450,"freshness":"FRESH","line1":"1 49084U 21075K   26145.02722235 -.00000078  00000+0 -23341-3 0  9993","line2":"2 49084  87.9154  10.4755 0001958  94.1388 265.9968 13.17652056230544","mean_motion":13.17652056,"eccentricity":0.0001958,"inclination_deg":87.9154,"raan_deg":10.4755,"arg_perigee_deg":94.1388,"mean_anomaly_deg":265.9968,"bstar":-0.00023341,"rev_number":23054,"period_min":109.28529982121,"perigee_km":1192.2189863923,"apogee_km":1195.1841183694,"semimajor_km":7571.8385523808,"source":"CELESTRAK","updated_at":"2026-05-25T13:38:22.482471Z"}}}